• Join FlightAware (Why Join?)
  • Login
  • US Flag GB Flag 
07:43 EDT


 

Airport Tracker/Info


-or-


 

Live Flight TrackerFlight Track Log ✈ N319EE ✈ 30-Dec-2013 ✈ KPWM - KBGM

Flight Track Log - Related Links

Times and Time Zones

All times are in EST time to prevent confusion due to time zone crossing. See the N319EE flight status page for this flight to view local times or setup timezone preferences in your user account.

Time Position Orientation Groundspeed Altitude Reporting Facility
EST Latitude Longitude Course Direction KTS MPH feet Rate Location/Type
15:52 43.6575 -70.4125 286° West 150 173 4,400  Level Boston Center
15:53 43.6642 -70.4642 280° West 138 159 6,700 2,400 Climbing Boston Center
15:54 43.6753 -70.5206 285° West 142 163 9,300 2,220 Climbing Boston Center
15:55 43.6850 -70.5758 284° West 148 170 11,300 1,740 Climbing Boston Center
15:56 43.6956 -70.6378 283° West 165 190 12,900 1,500 Climbing Boston Center
15:57 43.7083 -70.7058 285° West 181 208 14,400 1,440 Climbing Boston Center
15:58 43.7061 -70.7822 268° West 195 224 15,900 1,440 Climbing Boston Center
15:59 43.6875 -70.8483 249° West 189 217 17,400 1,380 Climbing Boston Center
16:00 43.6678 -70.9131 247° West 184 212 18,800 1,080 Climbing Boston Center
16:01 43.6503 -70.9711 247° West 187 215 19,700 540 Climbing Boston Center
16:02 43.6311 -71.0392 249° West 190 219 20,000 120 Climbing Boston Center
16:03 43.6086 -71.1106 246° West 201 231 20,000  Level Boston Center
16:04 43.5817 -71.1989 247° West 209 241 20,000  Level Boston Center
16:05 43.5625 -71.2731 250° West 206 237 20,000  Level Boston Center
16:06 43.5428 -71.3500 251° West 212 244 20,000  Level Boston Center
16:07 43.5233 -71.4247 250° West 208 239 20,000  Level Boston Center
16:08 43.5028 -71.5006 250° West 210 242 20,000  Level Boston Center
16:09 43.4831 -71.5767 250° West 211 243 20,000  Level Boston Center
16:10 43.4633 -71.6514 250° West 209 241 20,000  Level Boston Center
16:11 43.4439 -71.7258 250° West 207 238 20,000  Level Boston Center
16:12 43.4219 -71.7989 248° West 207 238 20,000  Level Boston Center
16:13 43.4028 -71.8778 252° West 214 246 20,000  Level Boston Center
16:14 43.3825 -71.9550 250° West 215 247 20,000  Level Boston Center
16:15 43.3575 -72.0467 249° West 215 247 20,000  Level Boston Center
16:16 43.3369 -72.1222 250° West 213 245 20,000  Level Boston Center
16:17 43.3156 -72.1983 249° West 213 245 20,000  Level Boston Center
16:18 43.2953 -72.2758 250° West 217 250 20,000  Level Boston Center
16:19 43.2739 -72.3539 249° West 218 251 20,000  Level Boston Center
16:20 43.2525 -72.4319 249° West 219 252 20,000  Level Boston Center
16:21 43.2322 -72.5083 250° West 215 247 20,000  Level Boston Center
16:22 43.2106 -72.5839 249° West 214 246 20,000  Level Boston Center
16:23 43.1900 -72.6600 250° West 214 246 20,000  Level Boston Center
16:24 43.1686 -72.7367 249° West 217 250 20,000  Level Boston Center
16:26 43.1472 -72.8144 249° West 218 251 20,000  Level Boston Center
16:27 43.1231 -72.8992 249° West 215 247 20,000  Level Boston Center
16:28 43.1011 -72.9786 249° West 221 254 20,000  Level Boston Center
16:29 43.0794 -73.0581 250° West 211 243 20,000  Level Boston Center
16:30 43.0575 -73.1347 249° West 216 249 20,000  Level Boston Center
16:31 43.0358 -73.2106 249° West 216 249 20,000  Level Boston Center
16:32 43.0144 -73.2875 249° West 217 250 20,000  Level Boston Center
16:33 42.9914 -73.3678 249° West 218 251 20,000  Level Boston Center
16:34 42.9697 -73.4447 249° West 218 251 20,000  Level Boston Center
16:35 42.9475 -73.5225 249° West 220 253 20,000  Level Boston Center
16:36 42.9258 -73.5994 249° West 218 251 20,000  Level Boston Center
16:37 42.9028 -73.6775 248° West 221 254 20,000  Level Boston Center
16:38 42.8806 -73.7544 249° West 219 252 20,000  Level Boston Center
16:39 42.8550 -73.8439 249° West 222 255 20,000  Level Boston Center
16:40 42.8325 -73.9214 248° West 221 254 20,000  Level Boston Center
16:41 42.8094 -73.9989 248° West 221 254 20,000  Level Boston Center
16:42 42.7853 -74.0825 249° West 223 257 20,000  Level Boston Center
16:43 42.7606 -74.1619 247° West 226 260 20,000  Level Boston Center
16:45 42.7150 -74.3194 249° West 225 259 20,000  Level Boston Center
16:46 42.6914 -74.3997 248° West 227 261 20,000  Level Boston Center
16:48 42.6453 -74.5578 255° West 226 260 20,000 -120 Level Boston Center
16:49 42.6217 -74.6361 248° West 224 258 19,800 -540 Descending Boston Center
16:50 42.5942 -74.7278 248° West 234 269 19,000 -840 Descending Boston Center
16:51 42.5722 -74.8017 248° West 237 273 18,200 -720 Descending Boston Center
16:52 42.5461 -74.8844 247° West 237 273 17,600 -840 Descending Boston Center
16:53 42.5206 -74.9664 247° West 237 273 16,600 -1,020 Descending Boston Center
16:54 42.4958 -75.0522 249° West 241 277 15,600 -1,140 Descending Boston Center
16:55 42.4686 -75.1406 247° West 250 288 14,300 -1,440 Descending Boston Center
16:56 42.4364 -75.2475 248° West 255 293 12,700 -1,680 Descending Boston Center
16:57 42.4061 -75.3331 244° Southwest 253 291 10,900 -2,040 Descending Boston Center
16:58 42.3733 -75.4122 241° Southwest 246 283 8,700 -2,160 Descending Boston Center
16:59 42.3392 -75.4939 241° Southwest 248 285 6,600 -1,800 Descending Boston Center
17:00 42.3058 -75.5750 241° Southwest 249 287 5,100 -1,380 Descending Boston Center
17:01 42.2789 -75.6497 244° Southwest 242 278 3,900 -780 Descending Boston Center
17:02 42.2536 -75.7228 245° Southwest 227 261 3,600 -240 Descending Boston Center
17:03 42.2297 -75.7900 244° Southwest 208 239 3,500 -120 Descending Boston Center
17:04 42.2089 -75.8556 247° West 196 226 3,400 -300 Descending Boston Center
17:05 42.1900 -75.9144 247° West 181 208 2,900 -600 Descending Boston Center
17:06 42.1883 -75.9619 267° West 157 181 2,200 -720 Descending Boston Center